period_start,C,m1,H,J0,J1,J2,J3,J4,J5,JA,JB,JC,JD,JJ,JK,JN,#
2014-03-31 00:00:02,0.14,0.10,0.00,11.15,16.07,19.36,6.43,31.08,1021.49,2083.92,3543.11,3380.13,3676.47,349.48,338.59,1.02,0000 0000 0000 0000 000000
2014-03-31 00:01:02,0.11,0.10,0.00,11.16,16.07,19.36,6.40,31.08,1021.50,2083.87,3542.78,3380.04,3676.17,350.55,339.60,1.02,0000 0000 0000 0000 000000
2014-03-31 00:02:02,0.05,0.11,0.00,11.17,16.07,19.40,6.38,31.17,1021.50,2083.86,3542.32,3379.91,3676.06,350.84,339.89,1.03,0000 0000 0000 0000 000000
2014-03-31 00:03:03,0.11,0.11,0.00,11.16,16.07,19.36,6.42,31.17,1021.50,2083.90,3542.09,3379.48,3675.92,350.34,339.41,1.03,0000 0000 0000 0000 000000
2014-03-31 00:04:03,0.17,0.11,0.00,11.17,16.07,19.36,6.22,31.13,1021.50,2083.87,3541.78,3379.19,3675.52,349.36,338.45,1.04,0000 0000 0000 0000 000000
2014-03-31 00:05:03,0.10,0.11,0.00,11.17,16.07,19.37,6.28,31.13,1021.49,2083.88,3541.30,3379.07,3675.20,350.23,339.29,1.05,0000 0000 0000 0000 000000
2014-03-31 00:06:03,0.10,0.11,0.00,11.17,16.07,19.39,6.42,31.17,1021.50,2083.86,3541.10,3378.99,3675.06,350.43,339.49,1.05,0000 0000 0000 0000 000000
2014-03-31 00:07:03,0.04,0.11,0.00,11.18,16.07,19.39,6.43,31.00,1021.50,2083.89,3540.88,3378.77,3674.94,350.29,339.34,1.06,0000 0000 0000 0000 000000
2014-03-31 00:08:04,0.13,0.11,0.00,11.19,16.07,19.40,6.27,31.17,1021.50,2083.91,3540.40,3378.34,3674.58,349.66,338.72,1.06,0000 0000 0000 0000 000000
2014-03-31 00:09:04,0.24,0.11,0.00,11.19,16.07,19.41,6.16,31.17,1021.50,2083.89,3540.14,3378.13,3674.22,348.80,337.88,1.07,0000 0000 0000 0000 000000
2014-03-31 00:10:04,0.04,0.11,0.00,11.19,16.07,19.43,6.33,30.96,1021.50,2083.91,3539.95,3378.04,3674.07,350.39,339.42,1.08,0000 0000 0000 0000 000000
2014-03-31 00:11:04,0.09,0.11,0.00,11.19,16.07,19.40,6.42,31.00,1021.50,2083.92,3539.49,3377.96,3673.98,350.23,339.27,1.08,0000 0000 0000 0000 000000
2014-03-31 00:12:04,0.09,0.11,0.00,11.19,16.07,19.41,6.13,31.13,1021.50,2083.93,3539.18,3377.60,3673.64,348.62,338.13,1.09,0000 0000 0000 0000 000000
2014-03-31 00:13:04,0.20,0.11,0.00,11.19,16.07,19.38,6.44,31.04,1021.50,2083.95,3538.99,3377.22,3673.25,350.58,339.60,1.09,0000 0000 0000 0000 000000
2014-03-31 00:14:04,0.12,0.11,0.00,11.21,16.07,19.39,6.32,31.13,1021.50,2083.90,3538.50,3377.06,3673.09,350.21,339.32,1.10,0000 0000 0000 0000 000000
2014-03-31 00:15:04,0.07,0.11,0.00,11.21,16.07,19.37,6.35,31.00,1021.50,2083.92,3538.19,3376.95,3673.01,350.06,339.23,1.11,0000 0000 0000 0000 000000
2014-03-31 00:16:05,0.09,0.11,0.00,11.22,16.07,19.38,6.34,31.08,1021.50,2083.93,3538.03,3376.70,3672.66,349.89,338.90,1.11,0000 0000 0000 0000 000000
2014-03-31 00:17:05,0.14,0.12,0.00,11.23,16.07,19.40,6.21,31.08,1021.50,2083.93,3537.57,3376.30,3672.26,350.05,338.91,1.12,0000 0000 0000 0000 000000
2014-03-31 00:18:05,0.20,0.12,0.00,11.23,16.07,19.40,6.24,31.17,1021.50,2083.93,3537.22,3376.11,3672.09,350.48,339.53,1.12,0000 0000 0000 0000 000000
2014-03-31 00:19:06,0.07,0.12,0.00,11.23,16.07,19.43,6.24,31.17,1021.50,2083.92,3537.06,3376.03,3672.02,349.30,338.31,1.13,0000 0000 0000 0000 000000
2014-03-31 00:20:06,0.02,0.12,0.00,11.23,16.07,19.43,6.30,31.29,1021.50,2083.92,3536.67,3375.84,3671.69,349.24,338.05,1.13,0000 0000 0000 0000 000000
2014-03-31 00:21:06,0.15,0.12,0.00,11.24,16.07,19.41,6.38,31.00,1021.50,2083.88,3536.25,3375.38,3671.27,350.53,339.26,1.14,0000 0000 0000 0000 000000
2014-03-31 00:22:06,0.15,0.12,0.00,11.24,16.08,19.43,6.28,31.13,1021.50,2083.87,3536.04,3375.13,3671.10,349.62,338.79,1.15,0000 0000 0000 0000 000000
2014-03-31 00:23:06,0.09,0.12,0.00,11.24,16.08,19.44,6.12,31.13,1021.50,2083.88,3535.54,3375.04,3671.00,349.09,338.30,1.15,0000 0000 0000 0000 000000
2014-03-31 00:24:06,0.10,0.12,0.00,11.24,16.09,19.43,6.30,31.08,1021.50,2083.87,3535.19,3374.88,3670.64,350.36,339.61,1.16,0000 0000 0000 0000 000000
2014-03-31 00:25:07,0.10,0.12,0.00,11.24,16.09,19.45,6.37,31.25,1021.51,2083.91,3534.98,3374.47,3670.24,350.34,339.33,1.16,0000 0000 0000 0000 000000
2014-03-31 00:26:07,0.20,0.12,0.00,11.25,16.09,19.44,6.25,31.25,1021.52,2083.90,3534.48,3374.17,3670.08,350.06,339.04,1.17,0000 0000 0000 0000 000000
2014-03-31 00:27:07,0.14,0.12,0.00,11.26,16.09,19.44,6.37,31.13,1021.50,2083.81,3534.17,3374.06,3669.97,349.86,338.83,1.18,0000 0000 0000 0000 000000
2014-03-31 00:28:07,-0.01,0.12,0.00,11.27,16.09,19.44,6.38,31.13,1021.52,2083.85,3533.93,3373.93,3669.59,350.46,339.40,1.18,0000 0000 0000 0000 000000
2014-03-31 00:29:08,0.14,0.12,0.00,11.27,16.09,19.48,6.38,31.00,1021.50,2083.88,3533.42,3373.49,3669.22,350.76,339.69,1.19,0000 0000 0000 0000 000000
2014-03-31 00:30:08,0.24,0.13,0.00,11.28,16.09,19.45,6.30,31.33,1021.50,2083.80,3533.15,3373.18,3669.07,350.18,339.11,1.19,0000 0000 0000 0000 000000
2014-03-31 00:31:08,0.01,0.13,0.00,11.28,16.09,19.45,6.40,31.42,1021.52,2083.78,3532.86,3373.06,3668.90,350.94,339.86,1.20,0000 0000 0000 0000 000000
2014-03-31 00:32:08,0.08,0.13,0.00,11.29,16.09,19.48,6.18,31.33,1021.54,2083.64,3532.35,3372.89,3668.41,349.17,338.14,1.20,0000 0000 0000 0000 000000
2014-03-31 00:33:08,0.01,0.13,0.00,11.29,16.09,19.51,6.46,31.25,1021.53,2083.56,3532.11,3372.48,3668.15,350.50,339.42,1.21,0000 0000 0000 0000 000000
2014-03-31 00:34:09,0.13,0.13,0.00,11.30,16.09,19.52,6.27,30.92,1021.52,2083.64,3531.78,3372.18,3668.05,349.50,338.44,1.22,0000 0000 0000 0000 000000
2014-03-31 00:35:09,0.20,0.13,0.00,11.31,16.09,19.50,6.31,31.00,1021.53,2083.76,3531.32,3372.06,3667.96,350.11,339.02,1.22,0000 0000 0000 0000 000000
2014-03-31 00:36:09,0.16,0.13,0.00,11.32,16.09,19.47,6.24,31.08,1021.55,2083.78,3531.11,3371.99,3667.59,349.54,338.46,1.23,0000 0000 0000 0000 000000
2014-03-31 00:37:09,0.07,0.13,0.00,11.32,16.10,19.47,6.32,31.08,1021.56,2083.85,3530.86,3371.79,3667.23,350.02,338.93,1.23,0000 0000 0000 0000 000000
2014-03-31 00:38:09,0.20,0.13,0.00,11.32,16.10,19.50,6.32,31.17,1021.55,2083.89,3530.38,3371.41,3667.08,349.75,338.67,1.24,0000 0000 0000 0000 000000
2014-03-31 00:39:10,0.19,0.13,0.00,11.32,16.10,19.47,6.34,31.08,1021.57,2083.91,3530.13,3371.17,3666.97,350.45,339.11,1.25,0000 0000 0000 0000 000000
2014-03-31 00:40:10,0.09,0.13,0.00,11.32,16.11,19.50,6.27,31.21,1021.57,2083.92,3529.88,3371.04,3666.61,349.22,337.94,1.25,0000 0000 0000 0000 000000
2014-03-31 00:41:10,0.10,0.13,0.00,11.33,16.12,19.47,6.42,31.04,1021.57,2083.93,3529.37,3370.87,3666.24,350.32,339.21,1.26,0000 0000 0000 0000 000000
2014-03-31 00:42:10,0.15,0.13,0.00,11.34,16.12,19.47,6.19,31.21,1021.58,2083.85,3529.12,3370.49,3666.08,349.77,338.66,1.26,0000 0000 0000 0000 000000
2014-03-31 00:43:11,0.07,0.13,0.00,11.34,16.12,19.51,6.32,31.04,1021.61,2083.78,3528.71,3370.19,3665.86,350.01,338.91,1.27,0000 0000 0000 0000 000000
2014-03-31 00:44:11,0.07,0.13,0.00,11.34,16.12,19.50,6.32,31.04,1021.62,2083.71,3528.26,3370.06,3665.39,350.10,339.00,1.27,0000 0000 0000 0000 000000
2014-03-31 00:45:11,0.11,0.14,0.00,11.34,16.12,19.50,6.32,31.08,1021.67,2083.54,3528.04,3369.77,3665.14,350.51,339.41,1.28,0000 0000 0000 0000 000000
2014-03-31 00:46:11,-0.05,0.13,0.00,11.34,16.12,19.53,6.16,31.17,1021.71,2083.54,3527.55,3369.33,3665.00,349.75,338.92,1.29,0000 0000 0000 0000 000000
2014-03-31 00:47:12,0.23,0.14,0.00,11.35,16.12,19.50,6.28,31.04,1021.74,2083.40,3527.18,3369.12,3664.55,349.34,338.29,1.29,0000 0000 0000 0000 000000
2014-03-31 00:48:12,-0.02,0.14,0.00,11.35,16.12,19.49,6.43,31.00,1021.75,2083.41,3526.84,3369.00,3664.21,350.25,339.17,1.30,0000 0000 0000 0000 000000
2014-03-31 00:49:12,0.13,0.14,0.00,11.36,16.13,19.48,6.30,31.17,1021.82,2083.34,3526.34,3368.62,3664.08,350.11,339.06,1.30,0000 0000 0000 0000 000000
2014-03-31 00:50:12,0.10,0.14,0.00,11.36,16.13,19.45,6.30,31.17,1021.94,2083.35,3526.12,3368.28,3663.95,350.47,339.44,1.31,0000 0000 0000 0000 000000
2014-03-31 00:51:13,0.10,0.14,0.00,11.37,16.14,19.48,6.33,31.17,1021.92,2083.27,3525.82,3368.10,3663.57,349.31,338.30,1.32,0000 0000 0000 0000 000000
2014-03-31 00:52:13,0.08,0.14,0.00,11.38,16.14,19.51,6.34,31.25,1021.94,2083.22,3525.33,3368.03,3663.22,349.95,338.93,1.32,0000 0000 0000 0000 000000
2014-03-31 00:53:13,0.07,0.14,0.00,11.39,16.14,19.54,6.25,31.04,1021.93,2083.16,3525.10,3367.74,3663.07,349.80,338.60,1.33,0000 0000 0000 0000 000000
2014-03-31 00:54:13,0.08,0.14,0.00,11.39,16.14,19.57,6.39,31.00,1021.97,2083.17,3524.71,3367.28,3662.83,350.38,339.33,1.33,0000 0000 0000 0000 000000
2014-03-31 00:55:13,0.18,0.14,0.00,11.39,16.14,19.53,6.38,30.96,1021.99,2083.23,3524.28,3367.10,3662.40,350.46,339.10,1.34,0000 0000 0000 0000 000000
2014-03-31 00:56:14,0.17,0.14,0.00,11.40,16.14,19.52,6.33,30.92,1021.99,2083.28,3524.10,3367.03,3662.15,350.77,339.73,1.34,0000 0000 0000 0000 000000
2014-03-31 00:57:14,0.09,0.14,0.00,11.41,16.14,19.52,6.30,31.17,1021.97,2083.34,3523.84,3366.88,3662.05,350.01,338.95,1.35,0000 0000 0000 0000 000000
2014-03-31 00:58:14,0.12,0.14,0.00,11.41,16.15,19.49,6.16,31.08,1021.99,2083.28,3523.35,3366.44,3661.87,349.28,338.55,1.36,0000 0000 0000 0000 000000
2014-03-31 00:59:14,0.14,0.14,0.00,11.42,16.15,19.52,6.31,31.21,1021.98,2083.24,3523.13,3366.17,3661.39,349.88,338.44,1.36,0000 0000 0000 0000 000000
2014-03-31 01:00:15,0.11,0.14,0.00,11.42,16.16,19.56,6.21,31.13,1021.99,2083.22,3522.87,3366.05,3661.14,349.17,337.77,1.37,0000 0000 0000 0000 000000
2014-03-31 01:01:15,0.04,0.14,0.00,11.42,16.17,19.58,6.29,30.96,1021.99,2083.18,3522.38,3365.94,3661.01,350.60,339.00,1.37,0000 0000 0000 0000 000000
2014-03-31 01:02:15,0.08,0.15,0.00,11.43,16.17,19.55,6.41,31.17,1021.99,2083.17,3522.14,3365.59,3660.76,349.52,339.18,1.38,0000 0000 0000 0000 000000
2014-03-31 01:03:15,0.12,0.15,0.00,11.44,16.17,19.57,6.38,31.17,1021.99,2083.14,3522.05,3365.28,3660.34,349.68,338.60,1.39,0000 0000 0000 0000 000000
2014-03-31 01:04:16,0.10,0.15,0.00,11.44,16.17,19.56,6.39,31.29,1021.99,2083.15,3521.87,3365.11,3660.15,349.49,338.67,1.39,0000 0000 0000 0000 000000
2014-03-31 01:05:16,0.09,0.15,0.00,11.45,16.17,19.56,6.33,31.13,1021.99,2083.11,3521.41,3365.03,3660.05,349.82,339.04,1.40,0000 0000 0000 0000 000000
2014-03-31 01:06:16,0.03,0.15,0.00,11.46,16.18,19.59,6.22,31.17,1021.99,2083.08,3521.16,3364.97,3659.95,349.56,338.55,1.40,0000 0000 0000 0000 000000
2014-03-31 01:07:16,0.06,0.15,0.00,11.47,16.19,19.60,6.18,31.17,1021.99,2083.08,3521.04,3364.61,3659.54,349.24,337.98,1.41,0000 0000 0000 0000 000000
2014-03-31 01:08:16,0.13,0.15,0.00,11.47,16.19,19.57,6.29,31.17,1021.99,2083.10,3520.70,3364.27,3659.22,349.57,338.46,1.42,0000 0000 0000 0000 000000
2014-03-31 01:09:17,0.15,0.15,0.00,11.47,16.19,19.59,6.36,31.00,1021.99,2083.09,3520.27,3364.10,3659.08,350.32,339.32,1.42,0000 0000 0000 0000 000000
2014-03-31 01:10:17,0.11,0.15,0.00,11.49,16.19,19.59,6.43,31.38,1021.99,2083.09,3520.10,3364.02,3658.97,350.12,338.96,1.43,0000 0000 0000 0000 000000
2014-03-31 01:11:17,0.05,0.15,0.00,11.49,16.19,19.57,6.37,31.25,1021.99,2083.07,3519.88,3363.83,3658.55,349.90,338.75,1.43,0000 0000 0000 0000 000000
2014-03-31 01:12:17,0.10,0.15,0.00,11.49,16.19,19.59,6.38,30.96,1021.99,2083.04,3519.39,3363.40,3658.21,349.56,338.41,1.44,0000 0000 0000 0000 000000
2014-03-31 01:13:18,0.16,0.15,0.00,11.50,16.19,19.60,6.31,31.38,1021.99,2083.03,3519.14,3363.15,3658.07,349.89,338.73,1.44,0000 0000 0000 0000 000000
2014-03-31 01:14:18,0.08,0.15,0.00,11.51,16.20,19.61,6.37,31.25,1021.99,2083.02,3519.04,3363.05,3658.01,350.27,339.08,1.45,0000 0000 0000 0000 000000
2014-03-31 01:15:18,0.04,0.15,0.00,11.52,16.21,19.62,6.27,31.21,1021.99,2083.04,3518.72,3362.99,3657.80,349.07,337.92,1.46,0000 0000 0000 0000 000000
2014-03-31 01:16:18,0.08,0.15,0.00,11.52,16.22,19.62,6.18,31.17,1021.99,2083.01,3518.28,3362.71,3657.38,349.46,338.27,1.46,0000 0000 0000 0000 000000
2014-03-31 01:17:19,0.15,0.15,0.00,11.53,16.22,19.60,6.28,31.13,1021.99,2083.02,3518.09,3362.37,3657.13,349.96,338.69,1.47,0000 0000 0000 0000 000000
2014-03-31 01:18:19,0.12,0.15,0.00,11.54,16.22,19.64,6.34,31.38,1021.99,2083.01,3517.92,3362.14,3657.05,350.50,339.40,1.47,0000 0000 0000 0000 000000
2014-03-31 01:19:19,0.07,0.16,0.00,11.54,16.22,19.66,6.41,31.08,1021.99,2083.01,3517.44,3362.05,3656.90,349.97,338.83,1.48,0000 0000 0000 0000 000000
2014-03-31 01:20:19,0.09,0.16,0.00,11.55,16.22,19.64,6.31,31.04,1021.99,2083.01,3517.16,3361.98,3656.47,349.59,338.50,1.49,0000 0000 0000 0000 000000
2014-03-31 01:21:20,0.11,0.16,0.00,11.55,16.23,19.61,6.48,31.13,1021.99,2083.00,3517.04,3361.57,3656.18,350.52,339.26,1.49,0000 0000 0000 0000 000000
2014-03-31 01:22:20,0.13,0.16,0.00,11.56,16.24,19.62,6.42,31.08,1021.99,2083.00,3516.57,3361.22,3656.07,350.55,338.73,1.50,0000 0000 0000 0000 000000
2014-03-31 01:23:20,0.14,0.16,0.00,11.57,16.24,19.64,6.46,31.04,1021.99,2083.00,3516.23,3361.08,3655.91,350.50,339.24,1.50,0000 0000 0000 0000 000000
2014-03-31 01:24:20,0.08,0.16,0.00,11.58,16.24,19.60,6.28,31.17,1021.99,2083.00,3516.07,3361.00,3655.44,350.14,338.80,1.51,0000 0000 0000 0000 000000
2014-03-31 01:25:21,0.09,0.16,0.00,11.59,16.24,19.58,6.23,31.08,1021.99,2083.00,3515.72,3360.67,3655.18,349.98,338.82,1.51,0000 0000 0000 0000 000000
2014-03-31 01:26:21,0.13,0.16,0.00,11.59,16.24,19.58,6.42,31.21,1021.99,2083.00,3515.28,3360.30,3655.06,350.42,339.06,1.52,0000 0000 0000 0000 000000
2014-03-31 01:27:21,0.15,0.16,0.00,11.59,16.26,19.67,6.17,31.21,1021.99,2083.00,3515.09,3360.11,3654.98,349.24,337.78,1.53,0000 0000 0000 0000 000000
2014-03-31 01:28:22,0.07,0.16,0.00,11.60,16.27,19.62,6.15,31.21,1021.99,2083.00,3514.80,3360.02,3654.76,349.54,338.62,1.53,0000 0000 0000 0000 000000
2014-03-31 01:29:22,0.08,0.16,0.00,11.62,16.27,19.65,6.14,31.38,1021.99,2083.00,3514.31,3359.85,3654.32,348.50,337.25,1.54,0000 0000 0000 0000 000000
2014-03-31 01:30:22,0.14,0.16,0.00,11.62,16.27,19.64,6.39,31.54,1021.99,2083.00,3514.09,3359.40,3654.11,350.01,338.71,1.54,0000 0000 0000 0000 000000
2014-03-31 01:31:22,0.15,0.16,0.00,11.63,16.27,19.67,6.18,31.29,1021.99,2083.00,3513.65,3359.14,3653.79,350.22,338.89,1.55,0000 0000 0000 0000 000000
2014-03-31 01:32:23,0.14,0.16,0.00,11.64,16.27,19.70,6.46,31.46,1021.99,2083.00,3513.23,3359.01,3653.33,351.12,340.04,1.56,0000 0000 0000 0000 000000
2014-03-31 01:33:23,0.13,0.17,0.00,11.64,16.29,19.69,6.37,31.17,1021.99,2082.99,3513.05,3358.66,3653.12,350.58,339.22,1.56,0000 0000 0000 0000 000000
2014-03-31 01:34:23,0.11,0.17,0.00,11.64,16.29,19.65,6.08,30.96,1021.99,2082.99,3512.67,3358.36,3653.04,349.37,338.06,1.57,0000 0000 0000 0000 000000
2014-03-31 01:35:24,0.11,0.17,0.00,11.65,16.29,19.66,6.46,31.21,1021.99,2082.98,3512.25,3358.15,3652.97,350.81,338.98,1.57,0000 0000 0000 0000 000000
2014-03-31 01:36:24,0.10,0.17,0.00,11.66,16.29,19.63,6.31,31.13,1021.99,2082.99,3512.09,3358.04,3652.53,350.00,338.64,1.58,0000 0000 0000 0000 000000
2014-03-31 01:37:24,0.08,0.17,0.00,11.68,16.29,19.68,6.33,31.04,1021.99,2082.99,3511.94,3357.99,3652.20,349.95,338.58,1.58,0000 0000 0000 0000 000000
2014-03-31 01:38:24,0.07,0.17,0.00,11.69,16.30,19.66,6.14,31.00,1021.99,2082.99,3511.49,3357.77,3652.08,349.80,338.26,1.59,0000 0000 0000 0000 000000
2014-03-31 01:39:25,0.11,0.17,0.00,11.69,16.31,19.67,6.27,31.08,1021.99,2082.99,3511.19,3357.36,3652.02,350.13,338.92,1.60,0000 0000 0000 0000 000000
2014-03-31 01:40:25,0.12,0.17,0.00,11.70,16.32,19.69,6.38,31.13,1021.99,2082.98,3510.98,3357.13,3651.75,349.99,338.11,1.60,0000 0000 0000 0000 000000
2014-03-31 01:41:25,0.10,0.17,0.00,11.71,16.32,19.67,6.34,31.42,1021.99,2082.99,3510.48,3357.03,3651.32,350.00,338.56,1.61,0000 0000 0000 0000 000000
2014-03-31 01:42:25,0.13,0.17,0.00,11.71,16.32,19.68,6.43,31.13,1021.99,2082.99,3510.17,3356.85,3651.12,350.23,338.80,1.61,0000 0000 0000 0000 000000
2014-03-31 01:43:26,0.10,0.17,0.00,11.72,16.32,19.65,6.29,31.13,1021.99,2082.98,3510.04,3356.44,3651.01,349.58,338.38,1.62,0000 0000 0000 0000 000000
2014-03-31 01:44:26,0.12,0.17,0.00,11.73,16.32,19.65,6.19,31.04,1021.99,2082.98,3509.60,3356.16,3650.68,349.83,338.57,1.63,0000 0000 0000 0000 000000
2014-03-31 01:45:26,0.15,0.17,0.00,11.74,16.34,19.60,6.29,30.96,1021.99,2082.98,3509.24,3356.05,3650.29,350.64,338.90,1.63,0000 0000 0000 0000 000000
2014-03-31 01:46:27,0.09,0.17,0.00,11.74,16.34,19.65,6.27,31.17,1022.00,2082.95,3509.08,3355.99,3650.12,349.69,338.14,1.64,0000 0000 0000 0000 000000
2014-03-31 01:47:27,0.04,0.17,0.00,11.74,16.34,19.66,6.27,31.08,1022.00,2082.95,3508.74,3355.78,3650.04,350.34,338.88,1.64,0000 0000 0000 0000 000000
2014-03-31 01:48:27,0.10,0.17,0.00,11.74,16.34,19.70,6.20,31.21,1022.00,2082.96,3508.31,3355.38,3649.92,349.10,337.68,1.65,0000 0000 0000 0000 000000
2014-03-31 01:49:28,0.16,0.18,0.00,11.76,16.34,19.72,6.20,31.17,1022.00,2082.95,3508.12,3355.14,3649.49,349.50,337.93,1.66,0000 0000 0000 0000 000000
2014-03-31 01:50:28,0.11,0.18,0.00,11.78,16.36,19.73,6.20,31.13,1022.01,2082.97,3507.96,3355.05,3649.17,349.36,337.90,1.66,0000 0000 0000 0000 000000
2014-03-31 01:51:28,0.09,0.18,0.00,11.78,16.37,19.68,6.40,31.08,1022.03,2082.96,3507.50,3354.87,3649.06,350.40,338.48,1.67,0000 0000 0000 0000 000000
2014-03-31 01:52:28,0.10,0.18,0.00,11.79,16.37,19.72,6.34,31.21,1022.05,2082.93,3507.19,3354.38,3648.91,350.51,339.45,1.67,0000 0000 0000 0000 000000
2014-03-31 01:53:29,0.12,0.18,0.00,11.79,16.37,19.68,6.33,31.08,1022.04,2082.88,3507.00,3354.16,3648.51,349.89,338.40,1.68,0000 0000 0000 0000 000000
2014-03-31 01:54:29,0.09,0.18,0.00,11.79,16.37,19.72,6.44,31.04,1022.07,2082.90,3506.61,3354.05,3648.20,350.41,338.84,1.68,0000 0000 0000 0000 000000
2014-03-31 01:55:29,0.11,0.18,0.00,11.80,16.38,19.68,6.29,31.21,1022.10,2082.89,3506.25,3354.00,3648.07,350.00,338.50,1.69,0000 0000 0000 0000 000000
2014-03-31 01:56:30,0.07,0.18,0.00,11.81,16.39,19.72,6.16,31.13,1022.15,2082.86,3506.09,3353.73,3647.99,348.97,337.52,1.70,0000 0000 0000 0000 000000
2014-03-31 01:57:30,0.09,0.18,0.00,11.82,16.39,19.73,6.22,31.21,1022.17,2082.87,3505.76,3353.33,3647.52,349.13,337.68,1.70,0000 0000 0000 0000 000000
2014-03-31 01:58:30,0.17,0.18,0.00,11.82,16.39,19.72,6.27,31.04,1022.16,2082.88,3505.32,3353.12,3647.22,349.35,337.88,1.71,0000 0000 0000 0000 000000
2014-03-31 01:59:31,0.13,0.18,0.00,11.83,16.39,19.74,6.35,31.46,1022.22,2082.88,3505.10,3353.04,3647.08,350.41,338.92,1.71,0000 0000 0000 0000 000000
2014-03-31 02:00:31,0.04,0.18,0.00,11.84,16.41,19.71,6.39,31.17,1022.27,2082.81,3504.92,3352.91,3647.03,350.78,339.28,1.72,0000 0000 0000 0000 000000
2014-03-31 02:01:31,0.02,0.18,0.00,11.86,16.42,19.72,6.32,31.13,1022.26,2082.72,3504.50,3352.52,3646.91,350.70,338.87,1.73,0000 0000 0000 0000 000000
2014-03-31 02:02:31,0.08,0.18,0.00,11.86,16.42,19.74,6.42,31.08,1022.25,2082.66,3504.18,3352.21,3646.53,350.35,338.91,1.73,0000 0000 0000 0000 000000
2014-03-31 02:03:32,0.10,0.18,0.00,11.87,16.42,19.76,6.22,31.13,1022.28,2082.66,3504.07,3352.07,3646.22,349.44,338.01,1.74,0000 0000 0000 0000 000000
2014-03-31 02:04:32,0.07,0.18,0.00,11.87,16.42,19.73,6.25,31.21,1022.27,2082.65,3503.91,3352.01,3646.08,349.98,338.48,1.74,0000 0000 0000 0000 000000
2014-03-31 02:05:32,0.05,0.18,0.00,11.87,16.43,19.66,6.34,31.21,1022.29,2082.64,3503.44,3351.91,3646.01,348.80,337.34,1.75,0000 0000 0000 0000 000000
2014-03-31 02:06:33,0.11,0.19,0.00,11.88,16.44,19.63,6.20,31.04,1022.38,2082.68,3503.16,3351.55,3645.77,349.41,338.00,1.76,0000 0000 0000 0000 000000
2014-03-31 02:07:33,0.12,0.19,0.00,11.89,16.44,19.66,6.26,31.00,1022.41,2082.53,3503.01,3351.22,3645.33,350.27,338.77,1.76,0000 0000 0000 0000 000000
2014-03-31 02:08:33,0.02,0.19,0.00,11.90,16.44,19.71,6.48,31.04,1022.39,2082.42,3502.61,3351.08,3645.12,350.45,338.93,1.77,0000 0000 0000 0000 000000
2014-03-31 02:09:33,0.00,0.19,0.00,11.91,16.46,19.72,6.27,31.17,1022.42,2082.27,3502.23,3350.94,3644.97,350.21,338.82,1.77,0000 0000 0000 0000 000000
2014-03-31 02:10:34,0.01,0.19,0.00,11.92,16.47,19.73,6.22,31.04,1022.40,2082.14,3502.07,3350.52,3644.67,349.75,338.24,1.78,0000 0000 0000 0000 000000
2014-03-31 02:11:34,0.07,0.19,0.00,11.93,16.47,19.74,6.43,31.17,1022.44,2082.08,3501.66,3350.21,3644.27,350.57,338.43,1.78,0000 0000 0000 0000 000000
2014-03-31 02:12:34,0.11,0.19,0.00,11.93,16.47,19.79,6.37,31.08,1022.46,2082.07,3501.26,3350.08,3644.10,350.31,338.77,1.79,0000 0000 0000 0000 000000
2014-03-31 02:13:34,0.09,0.19,0.00,11.94,16.47,19.80,6.34,31.21,1022.46,2082.07,3501.08,3350.02,3644.00,350.40,338.86,1.80,0000 0000 0000 0000 000000
2014-03-31 02:14:35,0.05,0.19,0.00,11.94,16.49,19.79,6.26,31.04,1022.45,2082.07,3500.69,3349.83,3643.88,349.88,338.09,1.80,0000 0000 0000 0000 000000
2014-03-31 02:15:35,0.14,0.19,0.00,11.95,16.49,19.73,6.25,31.13,1022.44,2082.08,3500.26,3349.38,3643.45,349.79,338.48,1.81,0000 0000 0000 0000 000000
2014-03-31 02:16:35,0.16,0.19,0.00,11.96,16.49,19.71,6.18,31.00,1022.47,2082.04,3500.08,3349.13,3643.17,349.46,338.30,1.81,0000 0000 0000 0000 000000
2014-03-31 02:17:35,0.08,0.19,0.00,11.97,16.49,19.74,6.29,31.13,1022.43,2082.04,3499.64,3349.01,3643.04,350.08,338.51,1.82,0000 0000 0000 0000 000000
2014-03-31 02:18:36,0.09,0.19,0.00,11.98,16.51,19.72,6.36,31.17,1022.46,2082.01,3499.25,3348.74,3642.67,350.45,338.90,1.83,0000 0000 0000 0000 000000
2014-03-31 02:19:36,0.14,0.19,0.00,11.99,16.52,19.71,6.35,31.00,1022.47,2082.00,3499.05,3348.31,3642.25,350.34,338.89,1.83,0000 0000 0000 0000 000000
2014-03-31 02:20:36,0.15,0.19,0.00,11.99,16.52,19.72,6.37,31.08,1022.46,2082.00,3498.66,3348.12,3642.09,350.06,338.62,1.84,0000 0000 0000 0000 000000
2014-03-31 02:21:37,0.10,0.19,0.00,12.01,16.52,19.79,6.37,31.33,1022.46,2082.00,3498.27,3348.03,3642.02,350.28,338.57,1.84,0000 0000 0000 0000 000000
2014-03-31 02:22:37,0.07,0.19,0.00,12.02,16.53,19.76,6.28,31.17,1022.47,2082.00,3498.08,3347.95,3641.78,350.02,338.41,1.85,0000 0000 0000 0000 000000
2014-03-31 02:23:37,0.08,0.19,0.00,12.02,16.54,19.70,6.27,31.21,1022.48,2082.00,3497.94,3347.63,3641.36,349.13,337.54,1.85,0000 0000 0000 0000 000000
2014-03-31 02:24:38,0.14,0.19,0.00,12.03,16.54,19.72,6.34,31.38,1022.47,2082.01,3497.46,3347.28,3641.14,350.73,338.76,1.86,0000 0000 0000 0000 000000
2014-03-31 02:25:38,0.15,0.20,0.00,12.04,16.54,19.75,6.24,31.04,1022.48,2082.01,3497.16,3347.10,3641.05,349.88,338.24,1.87,0000 0000 0000 0000 000000
2014-03-31 02:26:38,0.08,0.20,0.00,12.05,16.55,19.76,6.32,31.25,1022.48,2082.01,3496.99,3347.03,3640.89,349.80,338.15,1.87,0000 0000 0000 0000 000000
2014-03-31 02:27:38,0.09,0.20,0.00,12.06,16.56,19.74,6.20,31.04,1022.48,2082.00,3496.51,3346.75,3640.41,349.99,338.31,1.88,0000 0000 0000 0000 000000
2014-03-31 02:28:39,0.16,0.20,0.00,12.07,16.57,19.71,6.18,31.17,1022.48,2082.00,3496.19,3346.34,3640.15,349.52,337.60,1.88,0000 0000 0000 0000 000000
2014-03-31 02:29:39,0.13,0.20,0.00,12.07,16.57,19.79,6.34,31.17,1022.48,2082.00,3496.04,3346.12,3640.05,349.89,338.22,1.89,0000 0000 0000 0000 000000
2014-03-31 02:30:39,0.09,0.20,0.00,12.07,16.57,19.79,6.37,31.21,1022.48,2082.00,3495.59,3345.99,3639.72,349.73,338.06,1.90,0000 0000 0000 0000 000000
2014-03-31 02:31:39,0.13,0.20,0.00,12.08,16.59,19.79,6.30,31.17,1022.48,2082.00,3495.21,3345.64,3639.29,349.80,338.44,1.90,0000 0000 0000 0000 000000
2014-03-31 02:32:40,0.16,0.20,0.00,12.09,16.59,19.76,6.18,31.33,1022.48,2082.00,3495.00,3345.27,3639.10,349.10,337.01,1.91,0000 0000 0000 0000 000000
2014-03-31 02:33:40,0.12,0.20,0.00,12.09,16.59,19.78,6.47,31.17,1022.48,2082.00,3494.59,3345.10,3639.03,350.69,338.96,1.91,0000 0000 0000 0000 000000
2014-03-31 02:34:40,0.09,0.20,0.00,12.11,16.59,19.76,6.26,31.00,1022.48,2082.00,3494.24,3345.03,3638.87,350.26,338.53,1.92,0000 0000 0000 0000 000000
2014-03-31 02:35:41,0.08,0.20,0.00,12.12,16.61,19.78,6.14,31.04,1022.48,2082.00,3494.07,3344.98,3638.42,349.95,338.22,1.92,0000 0000 0000 0000 000000
2014-03-31 02:36:41,0.07,0.20,0.00,12.13,16.62,19.75,6.29,31.00,1022.49,2082.00,3493.89,3344.72,3638.16,350.40,338.65,1.93,0000 0000 0000 0000 000000